{"data":{"norad_id":68732,"intl_designator":"2026-082E","name":"STARLINK-37167","alt_names":[],"object_type":"PAYLOAD","status":"ACTIVE","operator":null,"country":"US","launch_date":"2026-04-15","launch_site_code":"AFWTR","launch_vehicle":null,"mission":null,"orbit_class":"UNKNOWN","rcs_meters":null,"size_class":null,"mass_kg":null,"dimensions":null,"purposes":["comms"],"wikipedia_slug":null,"has_3d_model":false,"image_url":null,"decayed_at":null,"tle_current":{"epoch":"2026-05-25T04:00:03.998880Z","epoch_age_seconds":54667,"freshness":"FRESH","line1":"1 68732U 26082E   26145.16671295  .00015390  00000+0  28415-3 0  9999","line2":"2 68732  97.2854   8.7245 0001444 109.4896 213.8722 15.49181200  6001","mean_motion":15.491812,"eccentricity":0.0001444,"inclination_deg":97.2854,"raan_deg":8.7245,"arg_perigee_deg":109.4896,"mean_anomaly_deg":213.8722,"bstar":0.00028415,"rev_number":600,"period_min":92.952328623663,"perigee_km":418.13856001538,"apogee_km":420.10160786122,"semimajor_km":6797.2570839383,"source":"CELESTRAK","updated_at":"2026-05-25T13:38:22.005082Z"}}}